Погода в Гривах

Россия / Псковская область     57°06′43″N   28°18′06″E
темп.,
°C
ветер,
м/с
пор.,
м/с
влажн.,
%
обл.,
%
осадки,
мм/ч
давл.,
гПа
погр.,
м
7 мая, пт
пт700:00+5юз61285100 0.1 1002945
03:00+4юз6138472 0.1 10031035
06:00+3юз513855 0.0 1003786
09:00+7юз6106950 0.0 10041084
12:00+8зюз5965100 0.1 10051523
15:00+11зюз5847100 0.1 10052194
18:00+11зюз2551100 0.0 10041353
21:00+7ю4875100 0.1 1004251
8 мая, сб
сб800:00+5юв2394100 0.5 1004119
03:00+4ююз119688 0.6 100419
06:00+3з369649 0.0 1005302
09:00+6зсз476851 0.0 1006863
12:00+9зсз565289 0.1 10061844
15:00+8сз685599 0.1 10081812
18:00+7зсз686882 0.4 10091190
21:00+4сз398270 0.7 1011345
9 мая, вс
вс900:00+2з39885 0.0 1013221
03:000з310900 0.0 1016199
06:000з39860 0.0 1018200
09:00+7з355363 0.0 1020566
12:00+11зюз574668 0.0 10201496
15:00+13зюз573942 0.0 10201865
18:00+13юз4848100 0.0 10202095
21:00+8ю376395 0.0 1021164
10 мая, пн
пн1000:00+8ю41268100 0.0 1021401
03:00+9ююз61565100 0.0 1021684
06:00+9ююз5137175 0.0 1022513
09:00+11ююз4126896 0.0 1023514
12:00+18ююз58498 0.0 10241111
15:00+20ююз67455 0.0 10241513
18:00+19ю575363 0.0 10241276
21:00+13ю3107159 0.0 1025337
11 мая, вт
вт1100:00+11ю31285100 0.0 1026303
03:00+10ююв41381100 0.0 1026363
06:00+10ю4147897 0.0 1026404
09:00+14ю6126046 0.0 1026628
12:00+19ю69435 0.0 10251167
15:00+21ю68375 0.0 10251337
18:00+20ю48470 0.0 10241198
21:00+14ююв310725 0.0 1024256